W2TAO Weather Reports


time (UTC)temp
F
wind
direction
speed
knots
gust
knots
rain 1hr
in
rain 24hr
in
rain mn
in
humidity
%
barometer
mb
20260504202729 69 186 2.6 8.7 0.00 0.00 0.00 38 1009.8
20260504202226 67 227 3.5 7.0 0.00 0.00 0.00 39 1009.7
20260504201724 68 240 4.3 6.1 0.00 0.00 0.00 39 1009.8
20260504201221 68 204 3.5 5.2 0.00 0.00 0.00 38 1009.7
20260504200718 70 137 0.0 5.2 0.00 0.00 0.00 42 1009.9
20260504200214 69 255 5.2 11.3 0.00 0.00 0.00 36 1009.9
20260504195711 70 210 1.7 4.3 0.00 0.00 0.00 39 1009.8
20260504195207 67 232 3.5 7.8 0.00 0.00 0.00 38 1010.0
20260504194704 67 218 7.8 8.7 0.00 0.00 0.00 39 1010.1
20260504194200 67 214 5.2 7.0 0.00 0.00 0.00 37 1010.1
20260504193656 67 126 3.5 6.1 0.00 0.00 0.00 38 1010.1
20260504193154 69 215 5.2 5.2 0.00 0.00 0.00 37 1010.2
20260504192652 69 186 3.5 7.8 0.00 0.00 0.00 36 1010.3
20260504192150 67 195 1.7 6.1 0.00 0.00 0.00 40 1010.2
20260504191648 68 259 3.5 7.8 0.00 0.00 0.00 37 1010.5
20260504191144 68 240 6.1 10.4 0.00 0.00 0.00 37 1010.4
20260504190640 68 245 2.6 5.2 0.00 0.00 0.00 38 1010.6
20260504190137 66 236 1.7 4.3 0.00 0.00 0.00 38 1010.3
20260504185633 67 247 5.2 5.2 0.00 0.00 0.00 37 1010.5
20260504185130 69 307 4.3 7.8 0.00 0.00 0.00 36 1010.6
20260504184626 68 172 5.2 10.4 0.00 0.00 0.00 38 1010.5
20260504184121 70 262 2.6 3.5 0.00 0.00 0.00 36 1010.7
20260504183619 70 216 2.6 6.1 0.00 0.00 0.00 39 1010.7
20260504183116 68 234 3.5 6.1 0.00 0.00 0.00 36 1010.7
20260504182614 68 228 9.6 11.3 0.00 0.00 0.00 36 1010.7
20260504182111 68 272 1.7 5.2 0.00 0.00 0.00 34 1010.8
20260504181608 69 188 6.1 7.8 0.00 0.00 0.00 37 1011.0
20260504181105 71 221 0.9 5.2 0.00 0.00 0.00 37 1010.7
20260504180604 70 250 4.3 6.1 0.00 0.00 0.00 34 1010.7
20260504180103 68 202 2.6 9.6 0.00 0.00 0.00 35 1011.1
20260504175600 69 256 1.7 8.7 0.00 0.00 0.00 37 1011.1
20260504175056 67 265 4.3 8.7 0.00 0.00 0.00 36 1011.0
20260504174555 68 265 3.5 4.3 0.00 0.00 0.00 37 1011.1
20260504174051 69 213 8.7 12.2 0.00 0.00 0.00 36 1011.1
20260504173548 67 251 5.2 9.6 0.00 0.00 0.00 38 1011.3
20260504173045 68 288 2.6 7.8 0.00 0.00 0.00 36 1011.2
20260504172541 68 261 4.3 7.0 0.00 0.00 0.00 35 1011.3
20260504172038 68 235 3.5 6.1 0.00 0.00 0.00 35 1011.2
20260504171535 67 299 3.5 7.8 0.00 0.00 0.00 41 1011.3
20260504171032 66 252 3.5 8.7 0.00 0.00 0.00 36 1011.6
20260504170528 67 250 2.6 3.5 0.00 0.00 0.00 37 1011.6
20260504150912 61 258 4.3 7.8 0.00 0.00 0.00 41 1013.0
20260504150409 61 238 5.2 5.2 0.00 0.00 0.00 42 1012.9
20260504140835 59 242 6.1 9.6 0.00 0.00 0.00 43 1013.2
20260504140330 60 256 3.5 7.8 0.00 0.00 0.00 42 1013.2
20260504130800 56 251 4.3 4.3 0.00 0.00 0.00 47 1013.6
20260504130256 54 231 1.7 2.6 0.00 0.00 0.00 51 1013.9
20260504120219 44 135 1.7 3.5 0.00 0.00 0.00 74 1014.3
20260504110647 33 269 0.0 1.7 0.00 0.00 0.00 95 1014.3
20260504110143 33 73 1.7 1.7 0.00 0.00 0.00 95 1014.1
20260504100609 31 313 0.0 2.6 0.00 0.00 0.00 94 1014.0
20260504100107 31 330 1.7 2.6 0.00 0.00 0.00 95 1013.9
20260504082003 31 235 0.0 1.7 0.00 0.00 0.00 92 1014.0
20260504081500 31 299 0.0 0.9 0.00 0.00 0.00 92 1014.0
20260504080955 32 243 0.0 1.7 0.00 0.00 0.00 92 1014.0
20260504080452 32 273 0.9 0.9 0.00 0.00 0.00 92 1014.0
20260504050305 34 315 0.0 0.0 0.00 0.00 0.00 86 1013.5
20260504045803 34 284 1.7 1.7 0.00 0.00 0.00 85 1013.4
20260504045304 35 304 0.0 0.9 0.00 0.00 0.00 85 1013.3
20260504044800 35 291 0.0 0.9 0.00 0.00 0.00 84 1013.3
20260504044257 35 311 0.0 0.9 0.00 0.00 0.00 84 1013.4
20260504043754 35 286 0.9 1.7 0.00 0.00 0.00 84 1013.4
20260504043251 35 341 0.9 1.7 0.00 0.00 0.00 84 1013.2
20260504042749 36 11 0.0 0.9 0.00 0.00 0.00 84 1013.3
20260504042245 35 332 1.7 2.6 0.00 0.00 0.00 83 1013.3
20260504041742 36 3 0.0 1.7 0.00 0.00 0.00 85 1013.1
20260504041238 36 89 0.0 0.0 0.00 0.00 0.00 84 1013.1
20260504040734 36 60 0.0 0.0 0.00 0.00 0.00 85 1013.1
20260504040232 36 13 0.0 0.9 0.00 0.00 0.00 86 1012.9
20260504035727 36 4 0.0 0.9 0.00 0.00 0.00 86 1012.9
20260504035225 36 35 0.9 0.9 0.00 0.00 0.00 85 1012.9
20260504034722 36 304 0.0 0.0 0.00 0.00 0.00 85 1013.0
20260504034219 36 8 0.0 0.9 0.00 0.00 0.00 84 1012.9
20260504033717 36 339 0.0 0.0 0.00 0.00 0.00 84 1012.9
20260504033214 36 53 0.0 0.9 0.00 0.00 0.00 84 1013.0
20260504032711 36 25 0.0 0.9 0.00 0.00 0.00 83 1012.9
20260504032208 36 19 0.0 1.7 0.00 0.00 0.00 83 1012.9
20260504031705 36 34 0.0 0.9 0.00 0.00 0.00 82 1013.1
20260504031202 36 52 1.7 1.7 0.00 0.00 0.00 82 1013.0
20260504030658 36 38 0.0 0.0 0.00 0.00 0.00 81 1013.0
20260504030155 36 131 0.0 1.7 0.00 0.00 0.00 81 1012.9
20260504025652 37 66 0.0 0.0 0.00 0.00 0.00 80 1013.0
20260504025148 37 38 0.0 0.0 0.00 0.00 0.00 80 1012.9
20260504024646 37 48 0.0 0.9 0.00 0.00 0.00 81 1013.2
20260504024142 37 326 0.0 0.0 0.00 0.00 0.00 80 1013.1
20260504023639 37 76 0.0 0.0 0.00 0.00 0.00 80 1013.2
20260504023135 37 76 0.0 0.0 0.00 0.00 0.00 80 1013.1
20260504022632 37 10 0.9 0.9 0.00 0.00 0.00 80 1013.2
20260504022127 37 80 0.0 0.0 0.00 0.00 0.00 79 1013.1
20260504021626 37 80 0.0 0.0 0.00 0.00 0.00 78 1013.0
20260504021121 37 32 0.0 0.9 0.00 0.00 0.00 78 1013.1
20260504020619 38 55 0.0 0.9 0.00 0.00 0.00 76 1013.1
20260504020115 38 76 0.0 0.0 0.00 0.00 0.00 76 1013.1
20260504015611 38 48 0.0 0.0 0.00 0.00 0.00 75 1013.1
20260504015108 39 49 0.0 0.0 0.00 0.00 0.00 74 1013.0
20260504014604 39 49 0.0 0.0 0.00 0.00 0.00 73 1013.1
20260504014101 39 66 0.0 0.0 0.00 0.00 0.00 73 1013.0
20260504013559 39 315 0.0 0.0 0.00 0.00 0.00 72 1012.9
20260504013055 40 345 0.0 0.0 0.00 0.00 0.00 72 1012.8
20260504012553 40 43 0.0 0.0 0.00 0.00 0.00 72 1012.8
20260504012050 41 19 0.0 0.0 0.00 0.00 0.00 71 1012.8
20260504011547 41 89 0.0 0.9 0.00 0.00 0.00 69 1012.9
20260504011043 41 63 0.0 0.0 0.00 0.00 0.00 69 1012.9
20260504010539 42 191 0.0 0.9 0.00 0.00 0.00 68 1012.7
20260504010036 42 32 0.0 0.0 0.00 0.00 0.00 66 1012.7
20260504005532 43 44 0.0 0.0 0.00 0.00 0.00 64 1012.8
20260504005030 43 329 0.0 0.0 0.00 0.00 0.00 64 1012.7
20260504004527 44 89 0.0 0.0 0.00 0.00 0.00 63 1012.6
20260504004024 44 89 0.0 0.0 0.00 0.00 0.00 62 1012.5
20260504003520 45 76 0.0 0.9 0.00 0.00 0.00 61 1012.3
20260504003017 45 120 0.0 0.9 0.00 0.00 0.00 59 1012.2
20260504002514 46 224 0.0 0.9 0.00 0.00 0.00 63 1012.4
20260504002011 46 243 0.0 0.0 0.00 0.00 0.00 61 1012.3
20260504001509 47 76 0.0 0.0 0.00 0.00 0.00 55 1012.1
20260504001005 48 353 0.0 0.0 0.00 0.00 0.00 52 1012.2
20260504000502 49 233 0.0 0.0 0.00 0.00 0.00 51 1012.0
20260503235959 50 355 0.9 2.6 0.00 0.00 0.00 50 1012.1
20260503235457 50 299 0.0 1.7 0.00 0.00 0.00 50 1012.0
20260503234954 50 297 1.7 2.6 0.00 0.00 0.00 47 1012.0
20260503234452 51 298 0.0 2.6 0.00 0.00 0.00 51 1012.0
20260503233950 51 281 2.6 2.6 0.00 0.00 0.00 46 1011.9
20260503233446 51 257 2.6 5.2 0.00 0.00 0.00 45 1012.0
20260503232942 52 243 2.6 5.2 0.00 0.00 0.00 44 1012.1
20260503232439 52 213 1.7 3.5 0.00 0.00 0.00 44 1012.1
20260503231937 53 240 3.5 6.1 0.00 0.00 0.00 42 1011.9
20260503231435 53 250 2.6 3.5 0.00 0.00 0.00 42 1012.0
20260503230931 53 249 5.2 8.7 0.00 0.00 0.00 43 1011.9
20260503230427 53 271 3.5 6.1 0.00 0.00 0.00 41 1011.9
20260503225925 53 263 7.8 9.6 0.00 0.00 0.00 40 1011.9
20260503225422 54 277 2.6 3.5 0.00 0.00 0.00 41 1011.9
20260503224917 54 246 5.2 8.7 0.00 0.00 0.00 40 1011.6
20260503224415 54 264 2.6 4.3 0.00 0.00 0.00 41 1011.7
20260503223912 53 264 3.5 6.1 0.00 0.00 0.00 39 1011.8
20260503223410 53 234 6.1 7.0 0.00 0.00 0.00 41 1011.6
20260503222910 53 263 3.5 4.3 0.00 0.00 0.00 40 1011.7
20260503222409 53 274 1.7 4.3 0.00 0.00 0.00 42 1011.5
20260503221907 54 239 4.3 6.1 0.00 0.00 0.00 39 1011.4
20260503221406 54 249 6.1 7.8 0.00 0.00 0.00 37 1011.3
20260503220901 54 262 7.0 11.3 0.00 0.00 0.00 37 1011.4
20260503220358 55 263 4.3 8.7 0.00 0.00 0.00 36 1011.2
20260503215855 55 229 3.5 7.8 0.00 0.00 0.00 36 1011.2
20260503215352 55 319 3.5 7.0 0.00 0.00 0.00 36 1011.2
20260503214849 55 253 2.6 9.6 0.00 0.00 0.00 36 1011.3
20260503214347 56 256 5.2 7.0 0.00 0.00 0.00 35 1011.4
20260503213844 55 256 4.3 7.0 0.00 0.00 0.00 36 1011.3
20260503213342 55 300 5.2 7.8 0.00 0.00 0.00 36 1011.5
20260503212838 55 295 1.7 7.0 0.00 0.00 0.00 37 1011.4
20260503212336 55 272 2.6 7.0 0.00 0.00 0.00 39 1011.2
20260503211833 56 237 4.3 7.0 0.00 0.00 0.00 34 1011.3
20260503211330 56 229 2.6 7.8 0.00 0.00 0.00 33 1011.3
20260503210825 55 272 1.7 10.4 0.00 0.00 0.00 34 1011.2
20260503210323 56 266 2.6 9.6 0.00 0.00 0.00 35 1011.3
20260503205817 55 224 2.6 18.2 0.00 0.00 0.00 36 1011.2
20260503205314 56 271 2.6 8.7 0.00 0.00 0.00 34 1011.3
20260503204811 56 322 3.5 7.8 0.00 0.00 0.00 33 1011.2
20260503204309 57 290 2.6 6.1 0.00 0.00 0.00 36 1011.2
20260503203806 57 240 5.2 6.1 0.00 0.00 0.00 34 1011.2
20260503203303 57 244 5.2 7.8 0.00 0.00 0.00 36 1011.2